IK3XJT Weather Reports


time (UTC)temp
C
wind
direction
speed
KPH
gust
KPH
rain 1hr
cm
rain 24hr
cm
rain mn
cm
humidity
%
barometer
mb
20260507210814 16 74 3.2 8.0 0.00 0.10 0.03 83 1013.4
20260507210318 16 74 4.8 12.9 0.00 0.10 0.03 83 1013.3
20260507205859 16 74 4.8 12.9 0.00 0.10 0.03 83 1013.3
20260507205357 16 78 0.0 0.0 0.00 0.10 0.03 83 1013.3
20260507204820 16 78 0.0 0.0 0.00 0.10 0.03 83 1013.4
20260507204420 16 78 0.0 0.0 0.00 0.10 0.03 83 1013.4
20260507203937 16 78 0.0 0.0 0.00 0.10 0.03 83 1013.4
20260507203435 16 78 0.0 0.0 0.00 0.10 0.03 83 1013.2
20260507202813 16 78 0.0 8.0 0.00 0.10 0.03 83 1013.2
20260507202357 16 78 3.2 8.0 0.00 0.10 0.03 83 1013.2
20260507201820 16 78 1.6 11.3 0.00 0.10 0.03 83 1013.1
20260507201359 16 78 1.6 11.3 0.00 0.10 0.03 83 1013.1
20260507200817 16 78 1.6 8.0 0.00 0.10 0.03 84 1013.1
20260507200318 16 79 4.8 8.0 0.00 0.10 0.03 84 1012.9
20260507195828 16 79 4.8 11.3 0.00 0.10 0.03 84 1012.9
20260507195328 16 80 0.0 9.7 0.00 0.10 0.03 84 1012.9
20260507194909 16 80 0.0 12.9 0.00 0.10 0.03 84 1012.7
20260507194349 16 80 3.2 12.9 0.00 0.10 0.03 84 1012.7
20260507193831 16 90 6.4 9.7 0.00 0.10 0.03 84 1012.7
20260507193336 16 97 4.8 9.7 0.00 0.10 0.03 84 1012.4
20260507192819 16 107 0.0 0.0 0.00 0.10 0.03 84 1012.4
20260507192326 16 107 0.0 0.0 0.00 0.10 0.03 83 1012.4
20260507191849 16 107 0.0 0.0 0.00 0.10 0.03 83 1012.2
20260507191352 16 108 0.0 0.0 0.00 0.10 0.03 83 1012.2
20260507190854 16 108 0.0 0.0 0.00 0.10 0.03 83 1012.2
20260507190317 16 109 0.0 6.4 0.00 0.10 0.03 83 1012.0
20260507185817 17 109 3.2 6.4 0.00 0.10 0.03 83 1012.0
20260507185321 17 117 0.0 0.0 0.00 0.10 0.03 82 1012.0
20260507184830 17 121 0.0 0.0 0.00 0.10 0.03 81 1011.7
20260507184319 17 121 0.0 6.4 0.00 0.10 0.03 81 1011.7
20260507183928 17 121 0.0 6.4 0.00 0.10 0.03 81 1011.7
20260507183352 17 121 1.6 11.3 0.00 0.10 0.03 80 1011.6
20260507182832 17 121 0.0 11.3 0.00 0.10 0.03 80 1011.6
20260507182352 17 119 4.8 11.3 0.00 0.10 0.03 79 1011.6
20260507181822 17 116 4.8 11.3 0.00 0.10 0.03 79 1011.4
20260507181323 17 103 3.2 11.3 0.00 0.10 0.03 78 1011.4
20260507180823 17 104 3.2 9.7 0.00 0.10 0.03 78 1011.4
20260507180345 18 106 3.2 12.9 0.00 0.10 0.03 77 1011.1
20260507175911 18 106 9.7 14.5 0.00 0.10 0.03 77 1011.1
20260507175329 18 111 3.2 14.5 0.00 0.10 0.03 77 1011.1
20260507174909 18 117 4.8 14.5 0.00 0.10 0.03 77 1011.0
20260507174411 18 112 3.2 12.9 0.00 0.10 0.03 77 1011.0
20260507173816 18 96 3.2 12.9 0.00 0.10 0.03 77 1011.0
20260507173319 18 97 4.8 12.9 0.00 0.10 0.03 77 1010.8
20260507172822 18 111 4.8 11.3 0.00 0.10 0.03 76 1010.8
20260507172325 18 96 1.6 9.7 0.00 0.10 0.03 76 1010.8
20260507171830 18 94 3.2 8.0 0.00 0.10 0.03 76 1010.8
20260507171331 18 94 1.6 9.7 0.00 0.10 0.03 76 1010.8
20260507170837 18 94 3.2 14.5 0.00 0.10 0.03 76 1010.8
20260507170418 18 94 4.8 14.5 0.00 0.10 0.03 76 1010.9
20260507165857 18 116 6.4 14.5 0.00 0.10 0.03 75 1010.9
20260507165322 18 92 4.8 12.9 0.00 0.10 0.03 74 1010.9
20260507164843 19 103 8.0 12.9 0.00 0.10 0.03 73 1011.0
20260507164438 19 115 6.4 14.5 0.00 0.10 0.03 74 1011.0
20260507163838 19 90 8.0 12.9 0.00 0.10 0.03 74 1011.0
20260507163404 19 84 4.8 14.5 0.00 0.10 0.03 75 1011.0
20260507162847 19 100 8.0 14.5 0.00 0.10 0.03 74 1011.0
20260507162326 19 77 6.4 16.1 0.00 0.10 0.03 73 1011.0
20260507161850 19 91 9.7 17.7 0.00 0.10 0.03 72 1010.8
20260507161350 19 78 11.3 20.9 0.00 0.10 0.03 72 1010.8
20260507160835 19 150 11.3 20.9 0.00 0.10 0.03 72 1010.8
20260507160322 20 141 9.7 19.3 0.00 0.10 0.03 74 1010.6
20260507155902 20 103 9.7 17.7 0.00 0.10 0.03 74 1010.6
20260507155323 20 121 9.7 19.3 0.00 0.10 0.03 74 1010.6
20260507154436 19 108 6.4 12.9 0.00 0.10 0.03 75 1010.6
20260507153914 19 94 4.8 11.3 0.00 0.10 0.03 73 1010.6
20260507153315 19 81 4.8 12.9 0.00 0.10 0.03 70 1010.6
20260507152849 19 78 6.4 16.1 0.00 0.10 0.03 69 1010.6
20260507152329 19 101 6.4 16.1 0.00 0.10 0.03 67 1010.6
20260507151833 19 86 8.0 16.1 0.00 0.10 0.03 68 1010.5
20260507150847 19 94 6.4 12.9 0.00 0.10 0.03 71 1010.5
20260507150356 20 136 8.0 11.3 0.00 0.30 0.03 72 1010.5
20260507145903 20 90 0.0 8.0 0.00 0.30 0.03 70 1010.5
20260507145327 20 86 3.2 8.0 0.00 0.30 0.03 70 1010.5
20260507144851 20 80 0.0 8.0 0.00 0.30 0.03 68 1010.3
20260507144317 20 80 6.4 8.0 0.00 0.30 0.03 66 1010.3
20260507143821 21 211 1.6 9.7 0.00 0.30 0.03 68 1010.3
20260507143344 21 212 0.0 8.0 0.00 0.30 0.03 68 1010.0
20260507142830 21 212 1.6 8.0 0.00 0.30 0.03 67 1010.0
20260507141824 21 195 4.8 14.5 0.00 0.30 0.03 65 1010.0
20260507141345 21 176 3.2 17.7 0.00 0.30 0.03 64 1010.0
20260507140831 22 169 11.3 22.5 0.00 0.30 0.03 63 1010.0
20260507140341 22 154 11.3 27.4 0.00 1.91 0.03 62 1010.1
20260507135904 22 223 16.1 27.4 0.00 1.91 0.03 58 1010.1
20260507135345 23 194 9.7 20.9 0.00 1.91 0.03 57 1010.1
20260507134828 23 196 9.7 16.1 0.00 1.91 0.03 56 1010.1
20260507134418 22 142 0.0 0.0 0.00 1.91 0.03 56 1010.1
20260507133841 22 140 0.0 11.3 0.00 1.91 0.03 61 1010.1
20260507133419 22 140 4.8 11.3 0.00 1.91 0.03 61 1010.2
20260507132834 22 167 0.0 12.9 0.00 1.91 0.03 61 1010.2
20260507132317 22 190 3.2 12.9 0.00 1.91 0.03 58 1010.2
20260507131820 22 232 1.6 9.7 0.00 1.91 0.03 58 1010.2
20260507131350 22 245 4.8 14.5 0.00 1.91 0.03 60 1010.2
20260507130854 22 153 6.4 11.3 0.00 1.91 0.03 63 1010.2
20260507130335 21 164 3.2 17.7 0.00 1.91 0.03 62 1010.3
20260507125837 22 170 8.0 17.7 0.00 1.91 0.03 60 1010.3
20260507125400 22 172 8.0 14.5 0.00 1.91 0.03 58 1010.3
20260507124856 22 179 6.4 14.5 0.00 1.91 0.03 60 1010.2
20260507124813 22 179 6.4 14.5 0.00 1.91 0.03 60 1010.2
20260507124318 22 160 4.8 14.5 0.00 1.91 0.03 59 1010.2
20260507123824 23 170 3.2 14.5 0.00 1.91 0.03 57 1010.2
20260507123405 23 178 3.2 9.7 0.00 1.91 0.03 57 1010.4
20260507122906 23 175 3.2 11.3 0.00 1.91 0.03 59 1010.4
20260507121820 22 229 4.8 11.3 0.00 1.91 0.03 61 1010.5
20260507121345 22 178 3.2 9.7 0.00 1.91 0.03 61 1010.5
20260507120905 22 163 6.4 11.3 0.00 1.91 0.03 60 1010.5
20260507120325 22 181 3.2 16.1 0.00 1.91 0.03 62 1010.5
20260507115926 22 200 8.0 16.1 0.00 1.91 0.03 60 1010.5
20260507115405 22 174 4.8 16.1 0.00 1.91 0.03 59 1010.5
20260507114853 22 198 8.0 16.1 0.00 1.91 0.03 59 1010.5
20260507114337 22 215 9.7 14.5 0.00 1.91 0.03 57 1010.5
20260507113840 22 206 3.2 12.9 0.00 1.91 0.03 59 1010.5
20260507112833 22 303 0.0 0.0 0.00 1.91 0.03 58 1010.7
20260507112414 22 304 0.0 0.0 0.00 1.91 0.03 58 1010.7
20260507111835 22 308 0.0 9.7 0.00 1.91 0.03 58 1010.8
20260507111341 22 317 0.0 9.7 0.00 1.91 0.03 58 1010.8
20260507110824 22 286 0.0 12.9 0.00 1.91 0.03 58 1010.8
20260507110345 22 298 8.0 12.9 0.00 2.11 0.03 55 1011.0
20260507105827 22 210 3.2 11.3 0.00 2.11 0.03 58 1011.0
20260507105333 21 203 6.4 11.3 0.00 2.11 0.03 57 1011.0
20260507104914 21 282 4.8 12.9 0.00 2.11 0.03 55 1011.1
20260507104416 22 230 1.6 12.9 0.00 2.11 0.03 56 1011.1
20260507103833 22 228 4.8 12.9 0.00 2.11 0.03 56 1011.1
20260507103355 22 175 6.4 12.9 0.00 2.11 0.03 52 1011.1
20260507102833 21 190 4.8 12.9 0.00 2.11 0.03 58 1011.1
20260507102316 21 203 6.4 12.9 0.00 2.11 0.03 57 1011.1
20260507101817 21 252 8.0 11.3 0.00 2.11 0.03 57 1011.2
20260507101340 22 224 3.2 11.3 0.00 2.11 0.03 59 1011.2
20260507100837 21 210 1.6 11.3 0.00 2.11 0.03 59 1011.2
20260507100342 21 237 3.2 12.9 0.00 2.21 0.03 60 1011.2
20260507095823 21 282 9.7 12.9 0.00 2.21 0.03 60 1011.2
20260507095411 21 249 3.2 12.9 0.00 2.21 0.03 60 1011.2
20260507094839 21 242 3.2 9.7 0.00 2.21 0.03 61 1011.2
20260507094319 21 253 0.0 11.3 0.00 2.21 0.03 61 1011.2
20260507093846 21 273 6.4 12.9 0.00 2.21 0.03 60 1011.2
20260507092841 20 263 6.4 12.9 0.00 2.21 0.03 63 1011.1
20260507092342 21 263 0.0 11.3 0.00 2.21 0.03 64 1011.1
20260507091905 21 263 4.8 11.3 0.00 2.21 0.03 65 1011.2
20260507091406 20 270 1.6 9.7 0.00 2.21 0.03 64 1011.2
20260507090905 20 273 0.0 6.4 0.00 2.21 0.03 64 1011.2
20260507090347 20 273 0.0 6.4 0.00 2.31 0.03 67 1011.2
20260507085848 19 274 0.0 0.0 0.00 2.31 0.03 74 1011.2
20260507085327 19 274 0.0 8.0 0.00 2.31 0.03 74 1011.2
20260507084828 19 274 0.0 8.0 0.00 2.31 0.03 74 1011.1
20260507083843 19 281 4.8 9.7 0.00 2.31 0.03 71 1011.1
20260507083322 20 275 1.6 6.4 0.00 2.31 0.03 73 1011.1
20260507082843 19 279 4.8 11.3 0.00 2.31 0.03 73 1011.1
20260507082314 19 279 4.8 11.3 0.00 2.31 0.03 73 1011.1
20260507081838 19 281 3.2 9.7 0.00 2.31 0.03 76 1011.1
20260507081401 18 284 0.0 8.0 0.00 2.31 0.03 78 1011.1
20260507080900 18 284 0.0 11.3 0.00 2.31 0.03 77 1011.1
20260507080406 18 283 6.4 11.3 0.00 2.31 0.03 78 1011.0
20260507075906 18 67 0.0 8.0 0.00 2.31 0.03 80 1011.0
20260507075325 18 67 0.0 8.0 0.00 2.31 0.03 80 1011.0
20260507074828 19 76 0.0 6.4 0.00 2.31 0.03 82 1010.9
20260507074316 19 76 3.2 8.0 0.00 2.31 0.03 83 1010.9
20260507073838 18 78 3.2 8.0 0.00 2.31 0.03 84 1010.9
20260507073343 18 78 0.0 0.0 0.00 2.31 0.03 88 1010.8
20260507072845 18 78 0.0 0.0 0.00 2.31 0.03 89 1010.8
20260507072349 17 78 0.0 0.0 0.00 2.31 0.03 91 1010.8
20260507071320 17 78 0.0 0.0 0.00 2.31 0.03 92 1010.7
20260507070821 17 78 0.0 0.0 0.00 2.31 0.03 93 1010.7
20260507070326 17 78 0.0 0.0 0.00 2.31 0.03 94 1010.7
20260507065826 17 78 0.0 0.0 0.00 2.31 0.03 95 1010.7
20260507065327 16 78 0.0 0.0 0.00 2.31 0.03 95 1010.7
20260507064830 16 78 0.0 6.4 0.00 2.31 0.03 96 1010.6
20260507064311 16 78 0.0 6.4 0.00 2.31 0.03 96 1010.6
20260507063818 15 82 0.0 0.0 0.00 2.31 0.03 96 1010.6
20260507063322 15 82 0.0 0.0 0.00 2.31 0.03 96 1010.6
20260507062822 15 82 0.0 0.0 0.00 2.31 0.03 96 1010.6
20260507062346 15 82 0.0 0.0 0.00 2.31 0.03 96 1010.6
20260507061826 15 82 0.0 0.0 0.00 2.31 0.03 96 1010.6
20260507061350 15 82 0.0 0.0 0.00 2.31 0.03 96 1010.6
20260507060820 15 82 0.0 0.0 0.00 2.31 0.03 96 1010.6
20260507060410 15 82 0.0 0.0 0.00 2.39 0.03 96 1010.6
20260507055838 15 82 0.0 0.0 0.00 2.39 0.03 96 1010.6
20260507055326 15 82 0.0 0.0 0.00 2.39 0.03 96 1010.6
20260507054853 15 82 0.0 0.0 0.00 2.39 0.03 96 1010.4
20260507054332 15 82 0.0 0.0 0.00 2.39 0.03 96 1010.4
20260507053815 15 82 0.0 0.0 0.00 2.39 0.03 96 1010.4
20260507053406 15 82 0.0 0.0 0.00 2.39 0.03 96 1010.1
20260507052825 15 82 0.0 0.0 0.00 2.39 0.03 96 1010.1
20260507052325 15 82 0.0 0.0 0.00 2.39 0.03 96 1010.1
20260507051343 14 89 0.0 0.0 0.00 2.39 0.03 96 1010.1
20260507050812 14 89 0.0 0.0 0.00 2.39 0.03 96 1010.1
20260507050341 14 89 0.0 0.0 0.00 2.49 0.03 96 1009.9
20260507045847 14 89 0.0 0.0 0.00 2.49 0.03 96 1009.9
20260507045330 14 89 0.0 0.0 0.00 2.49 0.03 96 1009.9
20260507044910 14 89 0.0 0.0 0.00 2.49 0.03 96 1009.6
20260507044352 14 89 0.0 0.0 0.00 2.49 0.03 96 1009.6
20260507043816 14 89 0.0 0.0 0.00 2.49 0.03 96 1009.6
20260507043316 14 89 0.0 0.0 0.00 2.49 0.03 96 1009.5
20260507042346 14 89 0.0 0.0 0.00 2.49 0.03 96 1009.5
20260507041812 14 89 0.0 0.0 0.00 2.49 0.03 96 1009.2
20260507041339 14 89 0.0 0.0 0.00 2.49 0.03 96 1009.2
20260507040924 14 89 0.0 0.0 0.00 2.49 0.03 96 1009.2
20260507040408 14 89 0.0 0.0 0.00 2.49 0.03 96 1009.1
20260507035906 14 89 0.0 0.0 0.00 2.49 0.03 96 1009.1
20260507035327 14 89 0.0 0.0 0.10 2.49 0.03 96 1009.1
20260507034914 14 89 0.0 0.0 0.10 2.49 0.03 96 1009.1
20260507034354 14 89 0.0 0.0 0.10 2.49 0.03 96 1009.1
20260507033934 14 89 0.0 0.0 0.10 2.49 0.03 96 1009.1
20260507033412 14 89 0.0 0.0 0.10 2.49 0.03 96 1009.1
20260507032814 14 98 0.0 0.0 0.10 2.49 0.03 96 1009.1
20260507032338 14 98 0.0 0.0 0.10 2.49 0.03 96 1009.1
20260507031819 14 98 0.0 0.0 0.10 2.49 0.03 96 1009.0
20260507031323 14 98 0.0 0.0 0.10 2.49 0.03 96 1009.0
20260507030829 14 98 0.0 0.0 0.10 2.49 0.03 96 1009.0
20260507025859 14 98 0.0 0.0 0.10 2.49 0.03 96 1009.0
20260507025318 14 102 0.0 0.0 0.00 2.39 0.00 96 1009.0
20260507024841 14 105 0.0 0.0 0.00 2.39 0.00 95 1009.1
20260507024323 14 105 0.0 0.0 0.00 2.39 0.00 95 1009.1
20260507023904 14 105 0.0 0.0 0.00 2.39 0.00 95 1009.1
20260507023323 14 105 0.0 0.0 0.00 2.39 0.00 95 1009.2
20260507022823 14 106 0.0 0.0 0.00 2.39 0.00 95 1009.2
20260507022408 14 107 0.0 0.0 0.00 2.39 0.00 95 1009.2
20260507021848 14 117 0.0 0.0 0.00 2.39 0.00 95 1009.0
20260507021350 13 117 0.0 0.0 0.00 2.39 0.00 96 1009.0
20260507020910 13 117 0.0 0.0 0.00 2.39 0.00 96 1009.0
20260507020335 13 117 0.0 0.0 0.00 2.39 0.00 95 1009.0
20260507015815 13 117 0.0 0.0 0.00 2.39 0.00 95 1009.0
20260507015436 13 117 0.0 0.0 0.00 2.39 0.00 95 1009.0
20260507014814 13 117 0.0 0.0 0.00 2.39 0.00 95 1009.0
20260507014317 13 117 0.0 0.0 0.00 2.39 0.00 95 1009.0
20260507013329 13 117 0.0 0.0 0.00 2.39 0.00 95 1009.0
20260507012830 13 117 0.0 0.0 0.00 2.39 0.00 95 1009.0
20260507012352 13 117 0.0 0.0 0.00 2.39 0.00 95 1009.0
20260507011914 13 117 0.0 0.0 0.00 2.39 0.00 95 1009.0
20260507011353 13 117 0.0 0.0 0.00 2.39 0.00 95 1009.0
20260507010933 13 117 0.0 0.0 0.00 2.39 0.00 95 1009.0
20260507005907 13 117 0.0 0.0 0.00 2.39 0.00 95 1009.0
20260507005326 13 117 0.0 0.0 0.00 2.39 0.00 95 1009.0
20260507004853 13 117 0.0 0.0 0.00 2.39 0.00 95 1009.0
20260507004313 13 117 0.0 0.0 0.00 2.39 0.00 95 1009.0
20260507003904 13 117 0.0 0.0 0.00 2.39 0.00 95 1009.0
20260507003332 13 117 0.0 0.0 0.00 2.39 0.00 95 1008.9
20260507002849 13 117 0.0 0.0 0.00 2.39 0.00 95 1008.9
20260507002328 13 117 0.0 0.0 0.00 2.39 0.00 95 1008.9
20260507001829 13 117 0.0 0.0 0.00 2.39 0.00 95 1009.0
20260507001310 14 117 0.0 0.0 0.00 2.39 0.00 95 1009.0
20260507000838 14 117 0.0 0.0 0.00 2.39 0.00 95 1009.0
20260507000343 14 117 0.0 0.0 0.00 2.39 0.00 95 1009.0
20260506235824 14 117 0.0 0.0 0.00 2.39 0.00 95 1009.0
20260506235327 14 117 0.0 0.0 0.00 2.39 0.00 95 1009.0
20260506234814 14 117 0.0 0.0 0.00 2.39 0.00 95 1009.0
20260506234338 14 117 0.0 0.0 0.00 2.39 0.00 95 1009.0
20260506233346 14 117 0.0 0.0 0.00 2.39 0.00 95 1009.0
20260506232831 14 117 0.0 0.0 0.00 2.39 0.00 95 1009.0
20260506232315 14 117 0.0 0.0 0.00 2.39 0.00 95 1009.0
20260506231856 14 117 0.0 0.0 0.00 2.39 0.00 95 1008.8
20260506231355 14 117 0.0 0.0 0.00 2.39 0.00 95 1008.8
20260506230900 14 117 0.0 0.0 0.00 2.39 0.00 95 1008.8
20260506230417 14 117 0.0 0.0 0.00 2.39 0.00 95 1009.0
20260506225820 14 117 0.0 0.0 0.00 2.39 0.00 95 1009.0
20260506225326 14 117 0.0 0.0 0.00 2.39 0.00 95 1009.0
20260506224810 14 117 0.0 0.0 0.00 2.39 0.00 95 1009.0
20260506224316 14 117 0.0 0.0 0.00 2.39 0.00 95 1009.0
20260506223817 14 117 0.0 0.0 0.00 2.39 0.00 95 1009.0
20260506223341 15 117 0.0 0.0 0.00 2.39 0.00 95 1009.0
20260506222853 15 117 0.0 0.0 0.00 2.39 0.00 95 1009.0
20260506222333 15 117 0.0 0.0 0.00 2.39 0.00 95 1009.0
20260506221813 15 117 0.0 0.0 0.00 2.39 0.00 95 1008.9
20260506221317 15 117 0.0 0.0 0.00 2.39 0.00 95 1008.9
20260506220842 15 117 0.0 0.0 0.00 2.39 0.00 95 1008.9
20260506220401 15 117 0.0 0.0 0.00 2.39 0.48 95 1008.9
20260506215823 15 117 0.0 0.0 0.00 2.39 0.48 95 1008.9
20260506215324 15 117 0.0 0.0 0.00 2.39 0.48 95 1008.9
20260506214824 15 117 0.0 0.0 0.00 2.39 0.48 95 1008.7
20260506214405 15 117 0.0 0.0 0.00 2.39 0.48 95 1008.7
20260506213836 15 117 0.0 0.0 0.00 2.39 0.48 94 1008.7
20260506213334 15 117 0.0 0.0 0.00 2.39 0.48 94 1008.9
20260506212845 15 117 0.0 0.0 0.00 2.39 0.48 94 1008.9
20260506211833 15 117 0.0 0.0 0.00 2.39 0.48 95 1008.9
20260506211334 15 117 0.0 0.0 0.00 2.39 0.48 94 1008.9